Regional Weather Roundup
Issued by NWS

Home | Current Version | Previous Version | Graphics & Text | Print | Product List | Glossary On
Versions: 1 2 3 4 5 6 7 8 9 10 11 12 13 14 15 16 17 18 19 20 21 22 23 24 25 26 27 28 29 30 31 32 33 34 35 36 37 38 39 40 41 42 43 44 45 46 47 48 49 50
083
ASUS44 KMEG 160600
RWRTN
TENNESSEE HOURLY STATE WEATHER ROUNDUP
NATIONAL WEATHER SERVICE MEMPHIS TN
1200 AM CST SAT DEC 16 2017

TNZ002-004-019-021-049-052-054-088>092-160700-
WEST TENNESSEE

CITY           SKY/WX    TMP DP  RH WIND       PRES   REMARKS
MEMPHIS INTL   CLEAR     37  27  67 S12       30.20S WCI  29
NWS MEMPHIS      N/A     37 N/A N/A MISG        N/A
JACKSON        CLEAR     34  27  75 S9        30.20S WCI  27
DYERSBURG      CLEAR     38  27  64 S7        30.19S WCI  33
$$

TNZ008-025-027-028-033-062-065-066-160700-
NORTH MIDDLE TENNESSEE

CITY           SKY/WX    TMP DP  RH WIND       PRES   REMARKS
NASHVILLE      CLEAR     29  22  75 S5        30.22S WCI  24
CLARKSVILLE    CLEAR     33  22  63 S5        30.17F WCI  29
SMYRNA         CLEAR     27  22  81 SE6       30.23S WCI  20
CROSSVILLE     CLOUDY    24  19  81 CALM      30.18R
$$

TNZ061-075-076-078-094-096-097-160700-
SOUTH MIDDLE TENNESSEE

CITY           SKY/WX    TMP DP  RH WIND       PRES   REMARKS
WINCHESTER     CLEAR     21  19  93 CALM      30.22F
$$

TNZ017-018-042-046-047-160700-
NORTHEAST TENNESSEE

CITY           SKY/WX    TMP DP  RH WIND       PRES   REMARKS
TRI CITIES     CLOUDY    30  23  75 W6        30.19S WCI  24
$$

TNZ012-013-036-069-073-074-160700-
CENTRAL EAST TENNESSEE

CITY           SKY/WX    TMP DP  RH WIND       PRES   REMARKS
KNOXVILLE      CLOUDY    26  24  92 SW3       30.22F
OAK RIDGE      CLEAR     27  22  81 CALM      30.24S
$$

TNZ083-085-099-160700-
SOUTHEAST TENNESSEE

CITY           SKY/WX    TMP DP  RH WIND       PRES   REMARKS
CHATTANOOGA    CLOUDY    26  21  81 CALM      30.24F
$$

SKY/WX REPORTED AS FAIR MEANS FEW OR NO CLOUDS BELOW
12 THOUSAND FEET.





USA.gov is the U.S. government's official web portal to all federal, state and local government web resources and services.